FW1492 Weather Reports


time (UTC)temp
C
wind
direction
speed
KPH
gust
KPH
rain 1hr
cm
rain 24hr
cm
rain mn
cm
humidity
%
barometer
mb
20260831213043 20 311 0.0 0.0 0.00 0.18 0.15 95 1019.6
20260831211544 20 311 0.0 0.0 0.00 0.18 0.15 95 1019.7
20260831210040 20 311 0.0 0.0 0.00 0.18 0.15 96 1019.9
20260831204641 20 312 0.0 1.6 0.00 0.18 0.15 96 1019.9
20260831203039 20 312 0.0 0.0 0.00 0.18 0.15 96 1020.0
20260831201537 20 312 0.0 0.0 0.03 0.18 0.15 96 1020.1
20260831200036 20 45 0.0 0.0 0.08 0.18 0.15 97 1020.0
20260831194536 19 45 0.0 0.0 0.15 0.18 0.15 95 1020.1
20260831193102 19 45 0.0 3.2 0.15 0.18 0.15 94 1020.7
20260831191534 20 127 0.0 0.0 0.13 0.15 0.13 93 1020.9
20260831190038 20 127 0.0 0.0 0.08 0.10 0.08 91 1021.1
20260831184533 21 127 0.0 0.0 0.00 0.03 0.00 88 1021.0
20260831183032 21 127 0.0 0.0 0.00 0.03 0.00 85 1020.9
20260831181545 22 127 0.0 0.0 0.00 0.03 0.00 84 1020.8
20260831180036 22 127 0.0 0.0 0.00 0.03 0.00 83 1020.9
20260831174529 22 127 0.0 0.0 0.00 0.03 0.00 82 1021.0
20260831173028 22 127 0.0 0.0 0.00 0.03 0.00 80 1021.2
20260831171527 23 127 0.0 0.0 0.00 0.03 0.00 78 1021.1
20260831170030 22 356 0.0 0.0 0.00 0.03 0.00 78 1021.0
20260831164522 22 356 0.0 0.0 0.00 0.03 0.00 81 1021.1
20260831163023 22 356 0.0 0.0 0.00 0.03 0.00 81 1021.1
20260831161535 22 95 0.0 3.2 0.00 0.03 0.00 81 1021.0
20260831160020 22 142 0.0 3.2 0.00 0.03 0.00 82 1021.0
20260831154518 22 134 0.0 1.6 0.00 0.03 0.00 83 1021.3
20260831153016 21 135 0.0 1.6 0.00 0.03 0.00 81 1021.5
20260831151514 21 307 0.0 3.2 0.00 0.03 0.00 83 1021.6
20260831150013 21 316 0.0 1.6 0.00 0.03 0.00 82 1021.6
20260831144514 21 310 0.0 3.2 0.00 0.03 0.00 83 1021.7
20260831143012 21 264 0.0 0.0 0.00 0.03 0.00 85 1021.6
20260831141508 20 144 0.0 1.6 0.00 0.03 0.00 85 1021.6
20260831140006 20 144 0.0 1.6 0.00 0.03 0.00 87 1021.6
20260831134503 20 143 0.0 0.0 0.00 0.03 0.00 89 1021.4
20260831133000 19 143 0.0 1.6 0.00 0.03 0.00 90 1021.4
20260831131603 19 301 0.0 0.0 0.00 0.03 0.00 92 1021.2
20260831130105 18 301 0.0 1.6 0.00 0.03 0.00 93 1021.2
20260831124556 18 298 0.0 0.0 0.00 0.03 0.00 95 1021.4
20260831123055 17 298 0.0 0.0 0.00 0.03 0.00 95 1021.5
20260831121555 17 298 0.0 0.0 0.00 0.03 0.00 95 1021.3
20260831120055 17 298 0.0 0.0 0.00 0.03 0.00 96 1021.4
20260831114553 17 298 0.0 0.0 0.00 0.03 0.00 95 1021.4
20260831113055 17 298 0.0 0.0 0.00 0.03 0.00 95 1021.1
20260831111553 17 298 0.0 0.0 0.00 0.03 0.00 95 1021.0
20260831110048 17 298 0.0 0.0 0.00 0.03 0.00 94 1020.5
20260831104550 17 317 0.0 1.6 0.00 0.03 0.00 94 1020.4
20260831103050 17 333 0.0 1.6 0.00 0.03 0.00 95 1020.6
20260831101546 16 345 0.0 3.2 0.00 0.03 0.00 95 1020.4
20260831100103 17 330 0.0 0.0 0.00 0.03 0.00 95 1020.5
20260831094548 17 330 0.0 0.0 0.00 0.03 0.00 95 1020.3
20260831093052 17 330 0.0 1.6 0.00 0.03 0.00 95 1020.3
20260831091541 17 330 0.0 0.0 0.00 0.03 0.00 95 1020.3
20260831090044 17 330 0.0 0.0 0.00 0.03 0.00 95 1020.2
20260831084540 17 330 0.0 1.6 0.00 0.03 0.00 95 1020.1
20260831083055 17 6 0.0 1.6 0.00 0.03 0.00 94 1020.2
20260831081550 17 45 0.0 1.6 0.00 0.03 0.00 94 1020.2
20260831080107 17 13 0.0 3.2 0.00 0.03 0.00 93 1020.3
20260831074537 17 3 0.0 3.2 0.00 0.03 0.00 93 1020.2
20260831073035 17 335 0.0 3.2 0.00 0.03 0.00 93 1019.9
20260831071543 17 340 0.0 6.4 0.00 0.03 0.00 94 1020.1
20260831070034 17 41 0.0 4.8 0.00 0.03 0.00 94 1020.3
20260831064531 17 356 0.0 3.2 0.00 0.03 0.00 94 1020.3
20260831063029 17 15 0.0 1.6 0.00 0.03 0.00 94 1020.5
20260831061528 18 348 0.0 6.4 0.00 0.03 0.00 93 1020.4
20260831060025 18 348 0.0 1.6 0.00 0.03 0.00 92 1020.3
20260831054525 18 350 0.0 3.2 0.00 0.03 0.00 91 1020.2
20260831053036 18 2 0.0 3.2 0.00 0.03 0.00 91 1020.4
20260831051527 18 285 1.6 4.8 0.00 0.03 0.00 91 1020.4
20260831050020 18 30 0.0 4.8 0.00 0.03 0.00 92 1020.3
20260831044530 18 18 0.0 4.8 0.00 0.03 0.00 92 1020.4
20260831043019 18 25 0.0 4.8 0.03 0.03 0.00 93 1020.5
20260831041524 18 341 0.0 3.2 0.03 0.03 0.00 94 1020.2
20260831040019 18 345 0.0 4.8 0.03 0.03 0.00 94 1020.2
20260831034511 18 338 0.0 4.8 0.03 0.03 0.03 94 1020.3
20260831033018 19 330 0.0 4.8 0.00 0.00 0.00 95 1020.3
20260831031511 19 41 0.0 3.2 0.00 0.00 0.00 95 1020.4
20260831030009 19 2 0.0 4.8 0.00 0.00 0.00 96 1020.6
20260831024511 19 357 0.0 3.2 0.00 0.00 0.00 96 1020.5
20260831023012 19 317 0.0 1.6 0.00 0.00 0.00 97 1020.6
20260831021514 20 2 0.0 1.6 0.00 0.00 0.00 97 1020.8
20260831020007 20 13 0.0 1.6 0.00 0.00 0.00 97 1020.8
20260831014507 20 339 0.0 3.2 0.00 0.00 0.00 97 1020.8
20260831013006 20 352 0.0 0.0 0.00 0.00 0.00 96 1020.8
20260831011506 20 339 0.0 1.6 0.00 0.00 0.00 96 1020.7
20260831010005 20 20 0.0 4.8 0.00 0.00 0.00 95 1020.5
20260831004504 21 335 0.0 6.4 0.00 0.00 0.00 94 1020.4
20260831003003 21 283 0.0 4.8 0.00 0.00 0.00 94 1019.9
20260831001503 21 7 0.0 3.2 0.00 0.00 0.00 94 1019.8
20260831000002 21 291 0.0 6.4 0.00 0.00 0.00 93 1019.6
20260830234501 21 286 0.0 1.6 0.00 0.00 0.00 93 1019.4
20260830233100 21 319 0.0 3.2 0.00 0.00 0.00 93 1019.3
20260830231607 21 283 0.0 1.6 0.00 0.00 0.00 93 1019.3
20260830224602 21 316 0.0 0.0 0.00 0.00 0.00 93 1019.5
20260830223059 21 45 0.0 0.0 0.00 0.00 0.00 93 1019.5
20260830221558 21 45 0.0 3.2 0.00 0.00 0.00 92 1019.4
20260830220059 21 294 0.0 1.6 0.00 0.00 0.00 92 1019.5
20260830214601 21 336 0.0 1.6 0.00 0.00 0.00 92 1019.5